Time,TemperatureF,DewpointF,PressureIn,WindDirection,WindDirectionDegrees,WindSpeedMPH,WindSpeedGustMPH,Humidity,HourlyPrecipIn,Conditions,Clouds,dailyrainin,SoftwareType,DateUTC
2013-07-06 00:33:00,74.0,-99.9,30.18,SW,216,-999.0,-999.0,-999,0.00,,,-99.99,,2013-07-06 04:33:00,
2013-07-06 00:43:00,74.0,-99.9,30.18,SW,216,-999.0,-999.0,-999,0.00,,,-99.99,,2013-07-06 04:43:00,
2013-07-06 00:53:00,75.0,-99.9,30.18,SW,216,-999.0,-999.0,-999,0.00,,,-99.99,,2013-07-06 04:53:00,
2013-07-06 01:34:00,75.0,-99.9,30.18,SW,216,-999.0,-999.0,-999,0.00,,,-99.99,,2013-07-06 05:34:00,
2013-07-06 01:43:00,75.0,-99.9,30.18,SW,216,-999.0,-999.0,-999,0.00,,,-99.99,,2013-07-06 05:43:00,
2013-07-06 01:53:00,74.0,-99.9,30.17,SW,216,-999.0,-999.0,-999,0.00,,,-99.99,,2013-07-06 05:53:00,
2013-07-06 02:34:00,74.0,-99.9,30.17,SW,216,-999.0,-999.0,-999,0.00,,,-99.99,,2013-07-06 06:34:00,
2013-07-06 02:43:00,74.0,-99.9,30.17,SW,216,-999.0,-999.0,-999,0.00,,,-99.99,,2013-07-06 06:43:00,
2013-07-06 03:33:00,73.0,-99.9,30.16,SW,216,-999.0,-999.0,-999,0.00,,,-99.99,,2013-07-06 07:33:00,
2013-07-06 03:44:00,73.0,-99.9,30.16,SW,216,-999.0,-999.0,-999,0.00,,,-99.99,,2013-07-06 07:44:00,
2013-07-06 03:52:00,73.0,-99.9,30.16,SW,216,-999.0,-999.0,-999,0.00,,,-99.99,,2013-07-06 07:52:00,
2013-07-06 03:53:00,72.0,-99.9,30.16,SW,216,-999.0,-999.0,-999,0.00,,,-99.99,,2013-07-06 07:53:00,
2013-07-06 04:34:00,72.0,-99.9,30.16,SW,216,-999.0,-999.0,-999,0.00,,,-99.99,,2013-07-06 08:34:00,
2013-07-06 04:43:00,72.0,-99.9,30.16,SW,216,-999.0,-999.0,-999,0.00,,,-99.99,,2013-07-06 08:43:00,
2013-07-06 04:53:00,71.0,-99.9,30.16,SW,216,-999.0,-999.0,-999,0.00,,,-99.99,,2013-07-06 08:53:00,
2013-07-06 05:34:00,71.0,-99.9,30.16,SW,216,-999.0,-999.0,-999,0.00,,,-99.99,,2013-07-06 09:34:00,
2013-07-06 05:43:00,71.0,-99.9,30.16,SW,216,-999.0,-999.0,-999,0.00,,,-99.99,,2013-07-06 09:43:00,
2013-07-06 05:52:00,72.0,-99.9,30.17,SW,216,-999.0,-999.0,-999,0.00,,,-99.99,,2013-07-06 09:52:00,
2013-07-06 06:33:00,72.0,-99.9,30.17,SW,216,-999.0,-999.0,-999,0.00,,,-99.99,,2013-07-06 10:33:00,
2013-07-06 06:43:00,72.0,-99.9,30.17,SW,216,-999.0,-999.0,-999,0.00,,,-99.99,,2013-07-06 10:43:00,
2013-07-06 06:53:00,73.0,-99.9,30.18,SW,216,-999.0,-999.0,-999,0.00,,,-99.99,,2013-07-06 10:53:00,
2013-07-06 07:33:00,73.0,-99.9,30.18,SW,216,-999.0,-999.0,-999,0.00,,,-99.99,,2013-07-06 11:33:00,
2013-07-06 07:43:00,73.0,-99.9,30.18,SW,216,-999.0,-999.0,-999,0.00,,,-99.99,,2013-07-06 11:43:00,
2013-07-06 09:33:00,78.0,-99.9,30.18,SW,216,-999.0,-999.0,-999,0.00,,,-99.99,,2013-07-06 13:33:00,
2013-07-06 09:43:00,78.0,-99.9,30.18,SW,216,-999.0,-999.0,-999,0.00,,,-99.99,,2013-07-06 13:43:00,
2013-07-06 09:52:00,78.0,-99.9,30.18,SW,216,-999.0,-999.0,-999,0.00,,,-99.99,,2013-07-06 13:52:00,
2013-07-06 10:34:00,79.0,-99.9,30.17,SW,216,-999.0,-999.0,-999,0.00,,,-99.99,,2013-07-06 14:34:00,
2013-07-06 10:43:00,79.0,-99.9,30.17,SW,216,-999.0,-999.0,-999,0.00,,,-99.99,,2013-07-06 14:43:00,
2013-07-06 10:52:00,80.0,-99.9,30.16,SW,216,-999.0,-999.0,-999,0.00,,,-99.99,,2013-07-06 14:52:00,
2013-07-06 11:34:00,80.0,-99.9,30.16,SW,216,-999.0,-999.0,-999,0.00,,,-99.99,,2013-07-06 15:34:00,
2013-07-06 11:43:00,80.0,-99.9,30.16,SW,216,-999.0,-999.0,-999,0.00,,,-99.99,,2013-07-06 15:43:00,
2013-07-06 11:53:00,80.0,-99.9,30.15,SW,216,-999.0,-999.0,-999,0.00,,,-99.99,,2013-07-06 15:53:00,
2013-07-06 12:51:00,80.0,-99.9,30.15,SW,216,-999.0,-999.0,-999,0.00,,,-99.99,,2013-07-06 16:51:00,
2013-07-06 12:52:00,82.0,-99.9,30.14,SW,216,-999.0,-999.0,-999,0.00,,,-99.99,,2013-07-06 16:52:00,
2013-07-06 13:52:00,80.0,-99.9,30.13,SW,216,-999.0,-999.0,-999,0.00,,,-99.99,,2013-07-06 17:52:00,
2013-07-06 14:51:00,80.0,-99.9,30.13,SW,216,-999.0,-999.0,-999,0.00,,,-99.99,,2013-07-06 18:51:00,
2013-07-06 14:52:00,80.0,-99.9,30.11,SW,216,-999.0,-999.0,-999,0.00,,,-99.99,,2013-07-06 18:52:00,
2013-07-06 15:51:00,80.0,-99.9,30.11,SW,216,-999.0,-999.0,-999,0.00,,,-99.99,,2013-07-06 19:51:00,
2013-07-06 15:53:00,79.0,-99.9,30.11,SW,216,-999.0,-999.0,-999,0.00,,,-99.99,,2013-07-06 19:53:00,
2013-07-06 17:52:00,77.0,-99.9,30.08,SW,216,-999.0,-999.0,-999,0.00,,,-99.99,,2013-07-06 21:52:00,
2013-07-06 18:50:00,77.0,-99.9,30.08,SW,216,-999.0,-999.0,-999,0.00,,,-99.99,,2013-07-06 22:50:00,
2013-07-06 18:52:00,78.0,-99.9,30.07,SW,216,-999.0,-999.0,-999,0.00,,,-99.99,,2013-07-06 22:52:00,
2013-07-06 19:52:00,77.0,-99.9,30.07,SW,216,-999.0,-999.0,-999,0.00,,,-99.99,,2013-07-06 23:52:00,
2013-07-06 20:52:00,76.0,-99.9,30.08,SW,216,-999.0,-999.0,-999,0.00,,,-99.99,,2013-07-07 00:52:00,
2013-07-06 21:51:00,76.0,-99.9,30.08,SW,216,-999.0,-999.0,-999,0.00,,,-99.99,,2013-07-07 01:51:00,
2013-07-06 21:52:00,75.0,-99.9,30.10,SW,216,-999.0,-999.0,-999,0.00,,,-99.99,,2013-07-07 01:52:00,
2013-07-06 22:53:00,77.0,-99.9,30.10,SW,216,-999.0,-999.0,-999,0.00,,,-99.99,,2013-07-07 02:53:00,
2013-07-06 23:45:00,77.0,-99.9,30.10,SW,216,-999.0,-999.0,-999,0.00,,,-99.99,,2013-07-07 03:45:00,
2013-07-06 23:52:00,76.0,-99.9,30.11,SW,216,-999.0,-999.0,-999,0.00,,,-99.99,,2013-07-07 03:52:00,